Zurück zum Katalog

COSMOS 970 DEB

AktivLEO
NORAD 10565·DEBRIS·🇷🇺 Russia

Gestartet Dec 21, 1977 von Baikonur Cosmodrome

Loading…

Nächste Überflüge (nächste 24 Stunden)

TLE

AktuellSource: Space-Track

Epoche: Sep 14, 2026, 06:17 UTC

1 10565U 77121G   26257.26222373  .00000121  00000-0  23106-3 0  9993
2 10565  65.8278 197.3273 0119412 198.3348 236.2455 13.66145282421340

Verfolge COSMOS 970 DEB in Echtzeit mit AllMySat

Download on the App Store